Regional Weather Roundup
Issued by NWS

Home | Current Version | Previous Version | Text Only | Print | Product List | Glossary Off
Versions: 1 2 3 4 5 6 7 8 9 10 11 12 13 14 15 16 17 18 19 20 21 22 23 24 25 26 27 28 29 30 31 32 33 34 35 36 37 38 39 40 41 42 43 44 45 46 47 48 49 50

000
ASUS43 KFSD 231810
RWRSD

WEATHER ROUNDUP FOR SOUTH DAKOTA
NATIONAL WEATHER SERVICE SIOUX FALLS SD
1200 PM CST MON JAN 23 2017

NOTE: "FAIR" INDICATES FEW OR NO CLOUDS BELOW 12,000 FEET WITH NO
SIGNIFICANT WEATHER AND/OR OBSTRUCTIONS TO VISIBILITY.


SDZ001>005-009-010-012>017-231900-
NORTHWEST AND NORTH CENTRAL SOUTH DAKOTA

CITY           SKY/WX    TMP DP  RH WIND       PRES   REMARKS
BUFFALO          N/A     24  19  81 NE3       29.64R
FAITH            N/A     26  24  92 E12       29.71F WCI  16
MOBRIDGE       CLOUDY    29  24  82 SE10      29.74F WCI  20
$$

SDZ012>016-024>037-041>051-057-063-072>074-231900-
SOUTHWEST AND SOUTH CENTRAL SOUTH DAKOTA

CITY           SKY/WX    TMP DP  RH WIND       PRES   REMARKS
RAPID CTY ARPT CLOUDY    25  22  88 CALM      29.65R
PIERRE         CLOUDY    28  25  88 SE15      29.76F WCI  16
CUSTER         CLOUDY    32  23  69 VRB6      29.56S WCI  26
ELLSWORTH AFB  CLOUDY    23  23  99 VRB3      29.64
PHILIP         CLOUDY    26  25  96 E15       29.68F WCI  14
PINE RIDGE     CLOUDY    37  31  78 SE3       29.63F
SPEARFISH      FAIR      19  19 100 NW9       29.64R FOG     WCI   9
$$

SDZ004>011-016>023-039-040-231900-
NORTHEAST SOUTH DAKOTA

CITY           SKY/WX    TMP DP  RH WIND       PRES   REMARKS
ABERDEEN       CLOUDY    30  23  75 W3        29.81F
WATERTOWN      CLOUDY    28  26  92 W6        29.80F WCI  22
SISSETON         N/A     32  28  85 NW7       29.81F WCI  26
$$

SDZ017-020-022-023-036>040-048>070-231900-
SOUTHEAST SOUTH DAKOTA

CITY           SKY/WX    TMP DP  RH WIND       PRES   REMARKS
SIOUX FALLS    CLOUDY    30  28  92 W8        29.84F WCI  22
HURON          CLOUDY    30  26  85 S3        29.83F
CHAMBERLAIN    CLOUDY    32  29  89 SE10      29.78F WCI  24
MITCHELL       CLOUDY    32  27  81 SE6       29.84F WCI  26
YANKTON        MOSUNNY   30  25  80 CALM      29.84F
$$

ABBREVIATIONS USED IN REMARKS
   TC - TEMPERATURE IN CELSIUS
  WCI - WIND CHILL INDEX
   HX - HEAT INDEX
  VSB - VISIBILITY





USA.gov is the U.S. government's official web portal to all federal, state and local government web resources and services.